Hourly Weather Lubango

Today, 29 September, Tuesday

Time Temperature Precipitation Wind Pressure Humidity
00:00 +14°C° 0 mm 1 mps 608 mmHg 60%
01:00 +14°C° 0 mm 1 mps 608 mmHg 56%
02:00 +14°C° 0 mm 1 mps 607 mmHg 53%
03:00 +14°C° 0 mm 1 mps 607 mmHg 50%
04:00 +14°C° 0 mm 1 mps 607 mmHg 46%
05:00 +16°C° 0 mm 1 mps 608 mmHg 41%
06:00 +18°C° 0 mm 1 mps 609 mmHg 36%
07:00 +20°C° 0 mm 2 mps 611 mmHg 30%
08:00 +24°C° 0 mm 2 mps 612 mmHg 25%
09:00 +26°C° 0 mm 3 mps 612 mmHg 19%
10:00 +29°C° 0 mm 3 mps 613 mmHg 14%
11:00 +30°C° 0 mm 3 mps 613 mmHg 13%
12:00 +33°C° 0 mm 3 mps 612 mmHg 12%
13:00 +34°C° 0 mm 3 mps 612 mmHg 11%
14:00 +33°C° 0 mm 3 mps 612 mmHg 13%
15:00 +31°C° 0 mm 3 mps 611 mmHg 15%
16:00 +30°C° 0 mm 4 mps 610 mmHg 17%
17:00 +26°C° 0 mm 3 mps 609 mmHg 29%
18:00 +21°C° 0 mm 2 mps 608 mmHg 42%
19:00 +17°C° 0 mm 2 mps 607 mmHg 54%
20:00 +16°C° 0 mm 1 mps 608 mmHg 56%
21:00 +15°C° 0 mm 1 mps 608 mmHg 58%
22:00 +15°C° 0 mm 1 mps 608 mmHg 59%
23:00 +15°C° 0 mm 1 mps 608 mmHg 55%

Tomorrow, 30 September, Wednesday

Time Temperature Precipitation Wind Pressure Humidity
00:00 +15°C° 0 mm 1 mps 608 mmHg 51%
01:00 +15°C° 0 mm 1 mps 607 mmHg 47%
02:00 +14°C° 0 mm 1 mps 607 mmHg 44%
03:00 +14°C° 0 mm 1 mps 607 mmHg 41%
04:00 +14°C° 0 mm 2 mps 607 mmHg 38%
05:00 +15°C° 0 mm 1 mps 608 mmHg 34%
06:00 +18°C° 0 mm 1 mps 608 mmHg 31%
07:00 +19°C° 0 mm 1 mps 609 mmHg 27%
08:00 +22°C° 0 mm 1 mps 611 mmHg 23%
09:00 +26°C° 0 mm 2 mps 612 mmHg 19%
10:00 +29°C° 0 mm 2 mps 613 mmHg 14%
11:00 +30°C° 0 mm 2 mps 612 mmHg 14%
12:00 +31°C° 0 mm 2 mps 612 mmHg 14%
13:00 +32°C° 0 mm 2 mps 611 mmHg 13%
14:00 +31°C° 0 mm 3 mps 610 mmHg 16%
15:00 +29°C° 0 mm 4 mps 610 mmHg 18%
16:00 +28°C° 0 mm 5 mps 609 mmHg 21%
17:00 +23°C° 0 mm 4 mps 608 mmHg 35%
18:00 +19°C° 0 mm 3 mps 607 mmHg 50%
19:00 +15°C° 0 mm 1 mps 606 mmHg 65%
20:00 +15°C° 0 mm 1 mps 606 mmHg 65%
21:00 +14°C° 0 mm 1 mps 607 mmHg 66%
22:00 +13°C° 0 mm 1 mps 607 mmHg 67%
23:00 +13°C° 0 mm 1 mps 607 mmHg 69%

Day after tomorrow, 1 October, Thursday

Time Temperature Precipitation Wind Pressure Humidity
00:00 +12°C° 0 mm 1 mps 606 mmHg 72%
01:00 +12°C° 0 mm 1 mps 606 mmHg 74%
02:00 +12°C° 0 mm 1 mps 606 mmHg 70%
03:00 +12°C° 0 mm 1 mps 606 mmHg 66%
04:00 +12°C° 0 mm 1 mps 606 mmHg 62%
05:00 +14°C° 0 mm 1 mps 607 mmHg 54%
06:00 +15°C° 0 mm 1 mps 608 mmHg 47%
07:00 +18°C° 0 mm 1 mps 609 mmHg 40%
08:00 +21°C° 0 mm 1 mps 610 mmHg 33%
09:00 +25°C° 0 mm 1 mps 611 mmHg 26%
10:00 +28°C° 0 mm 2 mps 612 mmHg 18%
11:00 +29°C° 0 mm 2 mps 611 mmHg 18%
12:00 +30°C° 0 mm 3 mps 611 mmHg 18%
13:00 +31°C° 0 mm 3 mps 610 mmHg 18%
14:00 +30°C° 0 mm 4 mps 610 mmHg 19%
15:00 +29°C° 0 mm 4 mps 609 mmHg 21%
16:00 +28°C° 0 mm 4 mps 608 mmHg 23%
17:00 +23°C° 0 mm 4 mps 607 mmHg 33%
18:00 +20°C° 0 mm 3 mps 607 mmHg 44%
19:00 +16°C° 0 mm 2 mps 606 mmHg 54%
20:00 +15°C° 0 mm 1 mps 606 mmHg 59%
21:00 +14°C° 0 mm 1 mps 606 mmHg 63%
22:00 +13°C° 0 mm 1 mps 607 mmHg 68%
23:00 +13°C° 0 mm 1 mps 607 mmHg 69%

2 October, Friday

Time Temperature Precipitation Wind Pressure Humidity
00:00 +13°C° 0 mm 1 mps 606 mmHg 71%
01:00 +12°C° 0 mm 1 mps 606 mmHg 72%
02:00 +13°C° 0 mm 1 mps 606 mmHg 68%
03:00 +13°C° 0 mm 1 mps 606 mmHg 63%
04:00 +13°C° 0 mm 1 mps 606 mmHg 59%
05:00 +13°C° 0 mm 0 mps 607 mmHg 53%
06:00 +15°C° 0 mm 0 mps 608 mmHg 46%
07:00 +17°C° 0 mm 0 mps 609 mmHg 40%
08:00 +22°C° 0 mm 1 mps 610 mmHg 32%
09:00 +25°C° 0 mm 1 mps 611 mmHg 25%
10:00 +28°C° 0 mm 2 mps 612 mmHg 18%
11:00 +29°C° 0 mm 2 mps 612 mmHg 17%
12:00 +30°C° 0 mm 3 mps 612 mmHg 17%
13:00 +31°C° 0 mm 3 mps 611 mmHg 16%
14:00 +30°C° 0 mm 4 mps 611 mmHg 18%
15:00 +29°C° 0 mm 4 mps 610 mmHg 21%
16:00 +28°C° 0 mm 5 mps 609 mmHg 23%
17:00 +25°C° 0 mm 4 mps 608 mmHg 33%
18:00 +20°C° 0 mm 3 mps 608 mmHg 44%
19:00 +17°C° 0 mm 2 mps 607 mmHg 54%
20:00 +16°C° 0 mm 2 mps 607 mmHg 55%
21:00 +15°C° 0 mm 1 mps 607 mmHg 56%
22:00 +14°C° 0 mm 1 mps 608 mmHg 58%
23:00 +14°C° 0 mm 1 mps 607 mmHg 56%

3 October, Saturday

Time Temperature Precipitation Wind Pressure Humidity
00:00 +14°C° 0 mm 1 mps 607 mmHg 54%
01:00 +14°C° 0 mm 1 mps 607 mmHg 52%
02:00 +14°C° 0 mm 1 mps 607 mmHg 48%
03:00 +14°C° 0 mm 1 mps 607 mmHg 44%
04:00 +14°C° 0 mm 1 mps 607 mmHg 40%
05:00 +16°C° 0 mm 1 mps 608 mmHg 34%
06:00 +18°C° 0 mm 1 mps 609 mmHg 28%
07:00 +20°C° 0 mm 1 mps 610 mmHg 22%
08:00 +23°C° 0 mm 1 mps 611 mmHg 19%
09:00 +26°C° 0 mm 1 mps 612 mmHg 16%
10:00 +29°C° 0 mm 2 mps 613 mmHg 13%
11:00 +30°C° 0 mm 2 mps 613 mmHg 12%
12:00 +31°C° 0 mm 2 mps 612 mmHg 12%
13:00 +32°C° 0 mm 2 mps 612 mmHg 11%
14:00 +33°C° 0 mm 3 mps 611 mmHg 12%
15:00 +32°C° 0 mm 4 mps 611 mmHg 13%
16:00 +30°C° 0 mm 4 mps 610 mmHg 14%
17:00 +26°C° 0 mm 3 mps 609 mmHg 23%
18:00 +21°C° 0 mm 3 mps 608 mmHg 33%
19:00 +17°C° 0 mm 2 mps 607 mmHg 42%
20:00 +17°C° 0 mm 2 mps 608 mmHg 41%
21:00 +17°C° 0 mm 2 mps 608 mmHg 41%
22:00 +16°C° 0 mm 1 mps 608 mmHg 40%
23:00 +16°C° 0 mm 1 mps 608 mmHg 38%

4 October, Sunday

Time Temperature Precipitation Wind Pressure Humidity
00:00 +16°C° 0 mm 2 mps 608 mmHg 36%
01:00 +16°C° 0 mm 2 mps 608 mmHg 34%
02:00 +16°C° 0 mm 2 mps 608 mmHg 32%
03:00 +16°C° 0 mm 1 mps 607 mmHg 30%
04:00 +16°C° 0 mm 1 mps 607 mmHg 28%
05:00 +18°C° 0 mm 1 mps 608 mmHg 26%
06:00 +20°C° 0 mm 1 mps 609 mmHg 24%
07:00 +21°C° 0 mm 1 mps 610 mmHg 22%
08:00 +24°C° 0 mm 2 mps 611 mmHg 18%
09:00 +27°C° 0 mm 2 mps 612 mmHg 15%
10:00 +30°C° 0 mm 3 mps 613 mmHg 12%
11:00 +31°C° 0 mm 3 mps 613 mmHg 11%
12:00 +33°C° 0 mm 3 mps 612 mmHg 10%
13:00 +35°C° 0 mm 3 mps 612 mmHg 8%
14:00 +34°C° 0 mm 3 mps 611 mmHg 10%
15:00 +33°C° 0 mm 3 mps 611 mmHg 11%
16:00 +33°C° 0 mm 4 mps 610 mmHg 12%
17:00 +27°C° 0 mm 3 mps 609 mmHg 21%
18:00 +23°C° 0 mm 2 mps 608 mmHg 31%
19:00 +18°C° 0 mm 1 mps 607 mmHg 41%
20:00 +18°C° 0 mm 1 mps 608 mmHg 43%
21:00 +16°C° 0 mm 1 mps 608 mmHg 45%
22:00 +15°C° 0 mm 1 mps 608 mmHg 47%
23:00 +15°C° 0 mm 1 mps 608 mmHg 48%
Show more

We Need Your Consent

Meteoprog and our Service Providers may store and access personal data such as cookies, device identifiers or other similar technologies on your device and process such data to personalise content and ads, as well as provide social media features and to analyse the traffic.

  • Store and/or access information on your device

    Cookies, device identifiers or other information can be stored or accessed on your device for the purposes indicated above.

  • Personalised ads and content, ad and content measurement, audience insights, and products development

    Ads and content can be personalised based on a profile. More data can be added to better personalise ads and content. Ad and content performance can be measured. Insights about the audience who saw the ads and content can be derived. Such data can be used to develop or improve user’s experience, systems and software.

By clicking ‘I Agree’ you will allow the use of indicated cookies, device identifiers, web beacons or other similar technologies. Your settings can be changed in the browser on your device.

For certain purposes, legitimate interests may be relied on, rather than consent. You can read more about this in our Privacy and Cookie Policy.